Weather reports worldwide

Advertisment
Capo Caccia, Italy (16522): temperature & dewpoint: 16.07.2019 04:00:00 - 22.07.2019 04:00:00 (CEST)Capo Caccia, Italy (16522): wind speed: 16.07.2019 04:00:00 - 22.07.2019 04:00:00 (CEST)Capo Caccia, Italy (16522): wind direction: 16.07.2019 04:00:00 - 22.07.2019 04:00:00 (CEST)Capo Caccia, Italy (16522): reduced air pressure: 16.07.2019 04:00:00 - 22.07.2019 04:00:00 (CEST)Capo Caccia, Italy (16522): visibility: 16.07.2019 04:00:00 - 22.07.2019 04:00:00 (CEST)Capo Caccia, Italy (16522): sunshine duration: 16.07.2019 04:00:00 - 22.07.2019 04:00:00 (CEST)
Date & Time tt [°C] td [°C] ff [km/h] ff [kn] dd ppp [hPa] vv [km] sd [min]
22.07.2019 04:00:00 24,0 19,3 8 4 ENE 1020,5 20 -
22.07.2019 03:00:00 24,0 16,5 5 3 ENE 1020,5 20 -
22.07.2019 02:00:00 23,6 18,7 9 5 NE 1020,9 20 -
22.07.2019 01:00:00 23,8 21,7 8 4 NE 1020,9 20 -
22.07.2019 00:00:00 24,2 22,6 15 8 NE 1020,9 20 -
21.07.2019 23:00:00 24,4 22,3 21 11 NNE 1020,7 20 -
21.07.2019 22:00:00 26,0 23,3 15 8 NNE 1020,2 20 -
21.07.2019 21:00:00 27,2 22,2 9 5 NNE 1019,2 20 6
21.07.2019 20:00:00 29,4 20,0 11 6 NNW 1019,0 20 60
21.07.2019 19:00:00 31,4 18,0 9 5 NNW 1018,7 20 60
21.07.2019 18:00:00 30,6 20,2 8 4 NNW 1019,0 30 60
21.07.2019 17:00:00 32,0 17,9 9 5 NW 1019,1 20 60
21.07.2019 16:00:00 30,2 19,6 11 6 NW 1019,2 20 60
21.07.2019 15:00:00 27,8 24,7 8 4 NNW 1019,8 20 60
21.07.2019 14:00:00 27,8 24,2 8 4 NW 1020,1 20 60
21.07.2019 13:00:00 27,0 24,1 5 3 SSW 1020,2 20 60
21.07.2019 12:00:00 26,0 23,7 8 4 SSW 1019,6 30 60
21.07.2019 11:00:00 26,0 23,1 8 4 W 1019,6 20 60
21.07.2019 10:00:00 25,0 22,7 4 2 WSW 1019,5 20 60
21.07.2019 09:00:00 24,2 22,1 8 4 S 1018,9 20 -
21.07.2019 08:00:00 24,0 22,3 2 1 WSW 1018,9 20 24
21.07.2019 07:00:00 23,4 22,4 5 3 ESE 1018,9 20 0
21.07.2019 06:00:00 23,8 22,6 5 3 ESE 1018,5 20 -
21.07.2019 05:00:00 24,2 19,5 8 4 ESE 1018,5 15 -
21.07.2019 04:00:00 24,6 19,9 8 4 ESE 1018,5 15 -
21.07.2019 03:00:00 25,4 20,7 8 4 S 1018,4 15 -
21.07.2019 02:00:00 25,8 19,9 0 0 N 1017,3 15 -
21.07.2019 01:00:00 26,0 18,7 0 0 N 1018,3 20 -
21.07.2019 00:00:00 25,6 19,7 0 0 N 1018,3 20 -
20.07.2019 23:00:00 25,4 19,5 0 0 N 1017,5 20 -
20.07.2019 22:00:00 25,4 21,3 9 5 ENE 1017,4 20 -
20.07.2019 21:00:00 27,0 18,6 8 4 NNW 1017,2 20 0
20.07.2019 20:00:00 26,4 19,3 8 4 NNW 1017,3 20 60
20.07.2019 19:00:00 26,4 21,6 11 6 NW 1017,1 20 60
20.07.2019 18:00:00 27,0 22,2 11 6 NW 1017,2 20 60
20.07.2019 17:00:00 27,0 22,0 15 8 WNW 1017,2 20 60
20.07.2019 16:00:00 27,0 21,1 11 6 WNW 1017,2 20 60
20.07.2019 15:00:00 29,2 20,6 8 4 WNW 1017,1 20 60
20.07.2019 14:00:00 29,0 17,5 8 4 WNW 1017,1 20 60
20.07.2019 13:00:00 28,8 18,0 0 0 N 1017,1 20 60
20.07.2019 12:00:00 27,4 21,4 0 0 N 1017,2 20 60
20.07.2019 11:00:00 26,6 18,2 0 0 N 1016,7 20 60
20.07.2019 10:00:00 25,4 17,1 5 3 S 1016,8 20 60
20.07.2019 09:00:00 24,8 18,0 0 0 N 1016,4 20 60
20.07.2019 08:00:00 23,8 18,5 0 0 N 1015,5 20 24
20.07.2019 07:00:00 21,6 17,0 0 0 N 1015,6 20 -
20.07.2019 06:00:00 21,2 17,6 0 0 N 1015,6 20 -
20.07.2019 05:00:00 21,2 19,3 5 3 E 1015,6 20 -
20.07.2019 04:00:00 21,2 19,7 5 3 E 1015,6 20 -
20.07.2019 03:00:00 21,8 21,0 9 5 E 1015,7 20 -
20.07.2019 02:00:00 21,8 20,8 5 3 E 1015,8 20 -
20.07.2019 01:00:00 22,2 19,9 5 3 ENE 1015,7 20 -
20.07.2019 00:00:00 22,6 20,7 5 3 N 1015,6 20 -
19.07.2019 23:00:00 23,0 21,1 8 4 N 1015,6 20 -
19.07.2019 22:00:00 23,0 21,3 5 3 N 1015,5 20 -
19.07.2019 21:00:00 24,4 22,1 8 4 N 1015,4 20 -
19.07.2019 20:00:00 25,0 21,7 13 7 WNW 1015,4 20 48
19.07.2019 19:00:00 25,2 21,5 13 7 NW 1015,3 20 60
19.07.2019 18:00:00 25,6 20,6 15 8 WNW 1015,4 20 60
19.07.2019 17:00:00 26,0 19,6 16 9 W 1015,5 20 60
19.07.2019 16:00:00 26,0 20,8 16 9 W 1015,8 20 60
19.07.2019 15:00:00 26,2 20,3 13 7 W 1015,9 20 60
19.07.2019 14:00:00 26,2 19,8 9 5 NNW 1015,9 20 60
19.07.2019 13:00:00 26,0 20,1 8 4 W 1015,9 20 60
19.07.2019 12:00:00 25,0 20,3 9 5 W 1015,9 20 60
19.07.2019 11:00:00 25,0 20,3 5 3 W 1015,5 20 60
19.07.2019 10:00:00 23,8 19,9 5 3 NW 1015,4 20 60
19.07.2019 09:00:00 23,2 20,0 5 3 WNW 1015,5 15 60
19.07.2019 08:00:00 22,8 20,5 4 2 SSE 1015,3 15 48
19.07.2019 07:00:00 21,4 19,3 4 2 W 1015,2 10 -
19.07.2019 06:00:00 21,4 19,3 5 3 WSW 1015,0 15 -
19.07.2019 05:00:00 21,6 19,5 5 3 WSW 1015,0 10 -
19.07.2019 04:00:00 21,8 19,7 4 2 W 1015,0 10 -
19.07.2019 03:00:00 21,2 19,1 5 3 WNW 1015,1 20 -
19.07.2019 02:00:00 21,4 19,3 8 4 WNW 1014,9 15 -
19.07.2019 01:00:00 21,4 19,3 5 3 NW 1014,9 10 -
19.07.2019 00:00:00 21,8 19,7 5 3 NNW 1014,7 10 -
18.07.2019 23:00:00 22,4 20,3 9 5 NNW 1014,3 10 -
18.07.2019 22:00:00 23,0 21,6 8 4 NNW 1013,6 10 -
18.07.2019 21:00:00 23,4 22,4 11 6 NNW 1013,2 10 -
18.07.2019 20:00:00 24,0 22,8 11 6 N 1012,6 20 48
18.07.2019 19:00:00 24,6 22,3 11 6 WNW 1012,5 20 60
18.07.2019 18:00:00 25,6 21,5 11 6 W 1012,5 20 60
18.07.2019 17:00:00 25,4 21,9 11 6 W 1012,5 20 60
18.07.2019 16:00:00 27,2 22,6 11 6 NNW 1012,6 20 60
18.07.2019 15:00:00 27,2 22,4 9 5 SW 1012,6 20 60
18.07.2019 14:00:00 25,6 22,9 9 5 N 1012,8 20 48
18.07.2019 13:00:00 24,4 22,7 8 4 S 1012,8 20 18
18.07.2019 12:00:00 24,6 22,3 11 6 SSW 1012,6 20 60
18.07.2019 11:00:00 24,4 21,3 9 5 S 1012,3 20 60
18.07.2019 10:00:00 23,2 20,5 9 5 S 1012,4 20 60
18.07.2019 09:00:00 24,0 21,9 9 5 S 1012,4 20 60
18.07.2019 08:00:00 22,6 20,9 8 4 SSW 1012,1 20 30
18.07.2019 07:00:00 21,6 19,9 8 4 SSW 1011,8 10 0
18.07.2019 06:00:00 21,6 20,2 8 4 S 1011,6 15 -
18.07.2019 05:00:00 21,8 20,1 8 4 S 1012,0 15 -
18.07.2019 04:00:00 21,6 19,9 8 4 S 1012,0 15 -
18.07.2019 03:00:00 21,4 20,6 8 4 SSW 1012,4 10 -
18.07.2019 02:00:00 22,0 20,3 0 0 N 1013,0 10 -
18.07.2019 01:00:00 22,2 20,5 0 0 N 1013,1 15 -
18.07.2019 00:00:00 22,2 20,5 0 0 N 1012,9 15 -
17.07.2019 23:00:00 22,2 20,5 0 0 N 1012,5 10 -
17.07.2019 22:00:00 23,4 21,3 5 3 NNW 1012,4 20 -
17.07.2019 21:00:00 23,4 20,9 13 7 NW 1012,4 20 0
17.07.2019 20:00:00 23,2 20,0 15 8 WNW 1012,4 20 30
17.07.2019 19:00:00 23,2 19,6 16 9 WNW 1012,4 20 12
17.07.2019 18:00:00 24,0 20,3 16 9 WNW 1012,8 20 48
17.07.2019 17:00:00 25,0 20,3 15 8 WNW 1013,3 20 60
17.07.2019 16:00:00 25,4 21,3 15 8 WNW 1013,3 20 60
17.07.2019 15:00:00 25,4 20,4 13 7 WNW 1013,5 20 60
17.07.2019 14:00:00 25,0 20,9 13 7 NNW 1013,6 20 60
17.07.2019 13:00:00 24,6 20,5 15 8 W 1013,6 20 60
17.07.2019 12:00:00 24,0 20,3 8 4 S 1014,4 20 60
17.07.2019 11:00:00 24,0 20,3 5 3 WSW 1014,4 20 60
17.07.2019 10:00:00 23,0 19,0 8 4 WSW 1014,4 20 60
17.07.2019 09:00:00 22,8 17,0 4 2 NNE 1014,0 20 60
17.07.2019 08:00:00 21,8 15,2 4 2 N 1014,1 20 30
17.07.2019 07:00:00 20,0 16,4 4 2 NE 1014,2 20 -
17.07.2019 06:00:00 20,0 15,4 0 0 N 1014,2 20 -
17.07.2019 05:00:00 19,2 16,6 5 3 NNE 1014,3 20 -
17.07.2019 04:00:00 19,6 17,9 8 4 NE 1014,2 20 -
17.07.2019 03:00:00 20,2 18,9 11 6 NE 1014,4 20 -
17.07.2019 02:00:00 20,2 18,7 15 8 NNE 1014,7 20 -
17.07.2019 01:00:00 20,2 19,7 15 8 NNE 1014,7 20 -
17.07.2019 00:00:00 20,4 18,0 15 8 NNE 1014,7 20 -
16.07.2019 23:00:00 21,2 19,5 11 6 N 1014,6 20 -
16.07.2019 22:00:00 21,8 20,6 16 9 N 1013,8 20 -
16.07.2019 21:00:00 23,8 17,5 15 8 NNW 1013,3 20 -
16.07.2019 20:00:00 25,2 14,0 16 9 NNW 1012,8 20 60
16.07.2019 19:00:00 24,8 14,9 18 10 NNW 1012,8 20 60
16.07.2019 18:00:00 24,0 21,5 24 13 NW 1012,7 20 60
16.07.2019 17:00:00 24,0 21,3 22 12 WNW 1012,7 20 60
16.07.2019 16:00:00 24,0 21,3 28 15 WNW 1012,4 20 60
16.07.2019 15:00:00 23,8 20,7 29 16 NW 1012,4 20 60
16.07.2019 14:00:00 24,0 21,7 29 16 WNW 1012,3 20 60
16.07.2019 13:00:00 24,0 21,3 21 11 NW 1012,3 20 60
16.07.2019 12:00:00 25,6 20,8 9 5 ENE 1012,0 20 60
16.07.2019 11:00:00 25,0 20,9 8 4 N 1011,6 20 60
16.07.2019 10:00:00 25,8 18,0 13 7 NE 1011,4 20 60
16.07.2019 09:00:00 23,6 18,9 11 6 NE 1011,4 20 60
16.07.2019 08:00:00 22,8 20,3 11 6 NNE 1011,2 20 36
16.07.2019 07:00:00 20,8 18,7 18 10 N 1010,2 20 0
16.07.2019 06:00:00 20,2 17,6 22 12 N 1009,6 20 -
16.07.2019 05:00:00 20,0 18,3 29 16 N 1008,4 20 -
16.07.2019 04:00:00 20,4 19,1 26 14 NNW 1007,6 20 -

tt = temperature
td = dewpoint
ff = wind speed
dd = wind direction
ppp = reduced air pressure
vv = visibility
sd = sunshine duration

Next stations